EHI
3 3 5 8 7 3 1 0 0 0 0 0 0 0 0 0 0 1 1 0 1 2 2 2 2 1 0 0 1 2 3 3 3 3 3 2 1 0 0 1 2 2 1 0 0 0 0 0 0
2 3 7 9 5 1 0 0 0 0 0 0 0 0 0 0 0 1 1 1 1 2 1 1 1 1 0 0 0 1 3 3 3 3 2 1 0 0 0 1 1 1 0 0 0 0 0 0 0
3 6 10 8 3 0 0 0 0 0 0 0 0 0 0 0 0 1 1 1 2 2 1 0 0 0 0 0 0 1 2 2 1 1 1 1 0 0 0 0 0 0 0 0 0 0 0 0 0
6 10 10 5 1 0 0 0 0 0 0 0 0 0 0 0 0 0 0 1 2 2 1 0 0 0 0 0 0 1 1 1 0 0 0 0 0 0 1 0 0 0 0 0 0 0 0 0 0
7 8 5 2 0 0 0 0 0 0 0 0 0 0 0 0 0 0 0 1 1 1 0 0 0 0 0 0 0 0 0 0 0 0 0 0 0 0 0 0 0 0 0 0 0 0 1 1 0
5 3 1 0 0 0 0 0 0 0 0 0 0 0 0 0 0 0 0 0 0 0 0 0 0 0 0 0 0 0 0 0 0 0 0 0 0 0 0 0 0 0 0 1 1 1 2 2 1
3 1 0 0 0 0 0 0 0 0 0 0 0 0 0 0 0 0 0 0 0 0 0 0 0 0 0 0 0 0 0 0 0 0 0 0 0 1 1 0 0 0 1 2 2 3 3 3 2
2 1 0 0 0 0 0 0 0 0 0 0 0 0 0 0 0 0 0 0 0 0 0 0 0 0 0 0 0 0 0 0 1 1 1 1 1 1 0 0 0 0 1 2 3 3 4 4 3
1 0 0 0 0 0 0 0 0 0 0 0 0 0 0 0 0 0 0 0 0 0 0 0 0 0 0 0 0 0 1 1 1 1 2 2 1 1 0 0 0 0 1 1 2 3 4 4 3
0 0 0 0 0 0 0 0 0 0 0 0 0 0 0 1 0 0 0 0 0 0 0 0 0 0 0 0 0 0 0 0 0 1 2 2 2 1 0 0 0 0 0 1 2 3 3 3 2
0 0 0 0 0 0 0 0 0 0 0 0 0 0 0 0 0 0 0 0 0 0 0 0 0 0 0 0 0 0 0 0 0 1 2 3 3 2 0 0 0 0 0 1 2 2 1 1 1
0 0 0 0 0 0 0 0 0 0 0 0 0 0 0 0 0 0 0 0 0 0 0 0 0 0 0 0 0 0 0 0 0 1 2 3 4 3 1 1 0 0 0 1 1 1 0 0 0
0 0 0 0 0 0 0 0 0 0 0 0 0 0 0 0 0 0 0 0 0 0 0 0 0 0 0 0 0 0 0 0 0 0 1 2 3 3 2 1 1 0 0 1 0 0 0 0 0
0 0 0 0 0 0 0 0 0 0 0 0 0 0 0 0 0 0 0 0 0 0 0 0 0 0 0 0 0 0 0 0 0 0 0 1 1 1 1 1 1 0 0 0 0 0 0 0 0
0 0 0 0 0 0 0 0 0 0 0 0 0 0 0 0 0 0 1 1 0 0 0 0 0 0 1 1 1 0 0 0 0 0 0 1 1 0 0 0 0 0 0 0 0 0 0 0 0
0 0 0 0 0 0 0 0 0 0 0 0 0 0 0 0 0 0 1 1 0 0 0 0 0 1 2 2 2 1 1 1 1 1 2 2 2 1 1 0 0 0 0 0 0 0 0 0 0
0 0 0 0 0 1 1 0 0 0 1 1 1 1 0 0 0 0 1 1 0 1 2 1 1 3 4 4 4 3 2 2 1 2 3 3 2 1 0 0 0 0 0 0 0 0 0 0 0
0 0 0 0 1 2 2 1 0 0 2 3 3 2 1 1 0 0 0 0 0 2 3 4 6 7 7 7 7 5 4 3 1 1 2 2 1 0 0 0 0 0 1 1 0 0 0 0 0
0 0 0 0 1 2 2 1 0 0 2 3 3 3 3 2 1 1 1 1 1 3 5 8 11 13 12 11 9 7 6 4 2 0 1 1 0 0 0 0 0 1 2 3 1 0 0 0 0
0 0 0 0 0 1 1 1 0 0 0 1 2 2 3 3 3 4 5 4 4 5 7 10 14 17 16 14 11 9 7 6 3 1 1 0 0 0 0 0 0 2 4 4 2 1 0 0 0
0 0 0 0 0 0 0 0 0 0 0 0 0 1 2 3 3 5 7 7 6 6 7 10 15 17 18 16 13 11 10 8 5 3 2 1 1 0 1 1 1 2 3 4 2 1 0 0 0
0 0 0 0 0 0 0 0 0 0 0 0 0 0 1 1 2 4 7 8 8 7 7 10 14 17 18 17 16 15 14 10 6 4 3 3 2 2 2 2 2 3 3 3 1 0 0 0 0
0 0 0 0 0 0 0 0 0 0 0 0 0 1 1 0 1 3 6 8 8 7 8 10 14 18 20 19 19 19 17 12 7 5 4 3 3 2 3 3 3 3 3 2 1 0 0 0 0
0 0 0 0 0 0 0 0 0 0 0 0 1 2 2 1 0 2 5 8 9 9 9 11 17 21 23 22 21 20 18 15 11 7 5 4 3 2 2 2 2 2 1 1 1 1 1 1 1
0 0 0 0 0 0 0 0 0 0 0 0 1 3 3 2 1 3 7 10 10 10 11 14 19 23 24 23 24 22 20 18 14 10 7 5 4 3 2 1 1 0 1 2 2 2 2 3 4
0 0 0 0 0 0 0 0 0 0 0 0 1 2 3 3 3 6 10 12 12 12 14 17 20 22 22 23 23 21 18 15 13 12 9 7 5 4 3 2 1 0 1 3 3 3 3 5 6
0 0 0 0 0 0 0 0 0 0 0 0 1 2 3 3 5 8 11 12 12 14 17 19 21 23 23 23 21 18 14 11 10 10 9 7 5 4 3 3 1 1 2 4 4 3 3 4 6
0 0 0 0 0 0 0 0 0 0 0 0 1 2 2 2 4 7 9 11 12 14 16 18 20 23 24 23 21 17 14 12 9 7 7 7 7 6 4 3 2 2 2 3 4 3 3 3 4
0 0 0 0 0 0 0 0 0 0 0 1 1 2 2 3 4 6 8 10 12 13 14 16 18 23 25 22 20 18 15 12 8 6 6 8 9 8 7 6 4 2 0 1 2 2 2 3 4
0 0 0 0 0 0 0 0 0 1 1 2 3 3 4 4 4 5 7 11 12 13 13 14 17 23 25 22 19 18 15 11 8 5 6 8 8 8 9 10 7 2 0 0 1 1 1 3 5
Wind_Speed
11 9 5 4 6 1 8 8 7 6 6 7 7 6 7 8 8 7 5 6 7 7 8 9 9 9 9 9 10 10 9 10 9 9 9 9 9 10 10 10 9 9 9 9 9 8 7 7 6
8 6 5 5 3 6 9 8 9 9 7 5 5 5 7 9 8 7 6 7 7 8 8 9 9 9 9 9 9 10 10 10 9 9 9 9 9 10 10 9 9 9 9 9 8 7 6 6 5
7 6 5 3 5 8 9 9 8 8 6 4 4 6 6 7 6 6 7 8 7 8 8 10 8 9 9 9 9 9 10 9 9 9 9 9 9 9 9 9 8 8 8 8 7 6 6 5 5
5 6 6 1 9 10 8 7 6 6 6 6 5 7 8 7 5 8 9 8 8 9 8 11 8 8 8 9 9 9 9 9 9 9 9 9 9 9 8 8 8 8 7 7 6 6 5 4 4
6 6 1 6 10 9 8 7 6 6 6 7 6 9 9 7 9 10 9 8 8 9 8 11 9 8 8 8 8 8 8 8 9 9 9 8 9 8 7 7 7 7 7 6 6 5 4 4 3
5 4 2 8 10 8 8 7 7 8 8 7 7 8 8 7 8 8 8 7 8 8 8 10 10 8 8 7 8 8 8 8 8 8 8 8 8 8 7 7 7 6 6 5 5 4 3 3 2
5 3 6 7 7 8 7 6 6 6 7 7 5 7 8 7 7 8 8 7 7 7 7 8 9 9 9 8 7 7 7 7 7 7 7 7 7 7 6 6 6 5 4 4 4 3 3 2 2
5 3 5 7 7 9 6 5 6 6 8 6 3 5 8 9 8 8 8 7 7 6 7 7 7 7 6 8 9 7 7 6 6 6 6 6 6 7 6 6 6 4 4 4 3 3 2 3 3
6 1 7 8 7 7 6 6 6 6 8 6 6 8 10 12 10 9 8 7 7 6 5 6 6 7 6 6 8 7 7 6 6 6 6 4 4 5 6 6 5 4 3 3 3 2 2 3 5
3 4 9 6 6 6 6 5 5 6 7 8 9 10 11 11 10 8 7 7 7 6 5 5 5 5 5 4 4 3 4 5 3 3 3 3 3 2 3 7 4 4 4 4 3 2 4 6 3
2 5 5 5 5 5 6 5 4 4 7 7 8 11 11 10 8 7 6 6 6 5 5 5 5 4 4 3 3 2 2 2 3 3 2 2 2 2 2 3 5 5 5 4 5 5 2 1 2
1 4 3 4 4 4 5 5 5 5 7 7 8 10 11 9 7 6 6 5 5 5 4 4 4 4 3 2 2 2 2 2 2 2 1 2 1 1 1 1 1 2 2 1 1 1 1 1 1
2 3 4 4 4 5 5 5 5 7 7 8 9 10 9 8 7 6 5 5 4 4 4 4 3 4 4 3 1 2 2 1 2 2 1 0 1 1 1 1 1 1 1 2 1 1 1 0 1
2 3 3 4 5 5 4 5 4 6 8 9 9 9 8 7 7 6 6 5 4 4 4 4 3 4 4 3 2 1 1 1 1 1 2 0 0 0 1 2 1 1 1 1 0 1 1 0 1
2 3 5 5 4 3 4 5 5 7 8 9 9 8 7 7 6 5 5 5 5 4 4 4 3 4 4 3 3 2 2 1 1 1 1 1 1 0 1 1 1 1 1 2 1 1 1 1 1
5 5 4 5 3 3 4 5 6 7 8 8 8 8 7 6 6 6 5 5 4 4 5 4 3 4 4 3 2 2 1 1 1 1 1 1 0 0 1 0 1 1 0 1 1 1 0 0 0
6 3 2 5 3 2 3 3 6 7 7 7 8 8 8 7 7 7 7 6 5 5 5 5 4 4 4 4 3 2 1 1 1 1 0 1 1 1 1 0 1 1 0 0 1 1 1 0 1
1 1 1 2 3 3 2 2 5 7 6 6 7 7 7 8 8 8 7 6 6 6 5 5 6 5 4 4 3 2 2 2 1 1 0 1 1 1 1 1 1 2 0 0 1 1 1 1 1
3 2 1 2 1 3 2 1 3 6 7 6 6 7 7 8 8 8 8 7 7 6 7 6 6 6 4 3 3 3 3 2 2 1 1 1 1 1 1 1 0 2 0 1 1 2 2 2 1
5 4 2 3 2 2 1 1 2 4 6 6 7 7 8 8 8 9 8 8 8 7 7 7 7 7 6 4 3 2 2 2 2 1 1 2 1 2 2 1 1 0 1 1 1 2 3 1 1
6 5 2 1 2 4 3 3 4 5 5 6 6 7 8 8 9 10 9 9 9 8 8 7 7 7 6 5 4 3 3 3 3 3 2 2 2 2 1 1 2 1 3 1 1 2 2 2 1
5 2 3 4 5 2 4 1 3 5 6 6 6 7 7 8 8 9 10 9 9 8 8 7 7 7 6 6 5 5 4 3 2 2 1 2 2 2 2 2 2 2 2 1 3 1 2 3 2
1 2 4 5 5 4 4 4 4 6 4 4 4 5 5 6 7 8 8 8 8 8 7 7 7 7 7 6 6 5 4 3 2 2 2 3 2 3 2 2 2 2 2 2 2 1 3 2 3
4 5 5 7 7 5 2 4 2 3 1 1 3 3 3 4 5 6 7 7 7 7 7 7 7 7 7 7 6 5 5 4 3 3 2 3 2 3 3 3 2 3 2 2 2 2 2 2 2
8 7 6 7 6 3 2 4 2 3 2 1 2 3 3 4 4 5 7 7 7 8 7 7 7 7 7 7 6 6 5 5 5 4 4 4 3 2 2 2 2 2 2 3 3 3 3 2 3
8 9 6 5 3 3 5 3 3 3 3 2 2 3 3 4 4 5 6 6 7 7 7 7 7 7 7 6 5 5 5 5 4 4 4 3 3 2 1 2 3 3 3 3 2 3 3 2 3
8 8 7 6 5 4 3 3 5 4 3 3 3 3 3 3 4 4 5 5 6 7 7 7 7 6 6 5 5 4 5 4 3 4 4 4 3 3 3 3 3 3 3 3 3 2 3 3 3
5 5 6 7 5 5 4 5 2 3 2 3 3 2 3 4 4 4 4 4 5 6 6 6 6 6 5 5 4 4 4 5 4 5 4 3 3 3 3 3 3 3 3 3 3 3 3 3 3
7 7 6 5 5 6 4 2 3 1 1 2 2 2 3 3 3 4 3 3 4 5 5 5 5 5 5 4 4 4 4 4 5 4 4 4 4 4 4 4 4 4 4 3 3 4 4 4 3
6 6 7 6 5 6 5 2 4 1 1 1 2 2 2 3 3 4 4 3 3 3 3 4 4 4 4 4 4 4 4 4 4 4 4 4 4 4 4 4 4 4 4 4 4 5 4 4 4
Wind_Direction
177 179 199 230 235 141 52 49 52 54 54 51 43 41 45 35 26 57 75 78 88 97 101 109 101 103 105 110 114 118 123 124 124 125 125 125 126 126 126 125 123 119 116 112 110 111 115 118 117
172 177 224 241 296 56 56 46 52 53 70 78 65 63 67 63 53 78 92 92 99 96 99 98 100 103 105 107 110 113 117 119 120 122 125 125 124 123 125 124 124 123 119 116 116 117 118 118 117
176 216 258 262 36 40 47 48 61 74 74 68 71 57 50 58 69 81 91 107 106 98 101 100 104 104 105 107 110 110 111 113 116 119 122 124 124 124 127 127 124 122 121 121 122 122 120 119 119
206 225 236 328 56 49 46 53 67 84 72 65 79 81 74 49 66 93 108 111 106 103 102 100 100 101 102 104 108 109 111 112 115 117 121 122 121 122 126 126 123 121 124 126 127 130 126 124 125
236 257 244 66 60 58 53 50 52 55 60 67 77 89 86 74 89 104 113 111 104 100 99 103 102 102 103 104 107 112 112 112 114 116 117 118 122 123 119 123 121 123 128 130 133 138 134 134 146
248 253 28 56 63 66 64 59 63 64 74 80 86 94 89 99 108 110 111 108 104 101 100 106 113 107 104 106 106 110 111 113 115 116 118 118 121 122 120 119 120 121 126 132 135 135 133 141 151
290 344 44 56 65 71 64 59 56 67 74 71 79 95 108 118 117 120 115 109 105 102 102 105 117 121 121 112 107 106 106 111 116 116 117 118 119 121 121 117 111 112 117 125 132 134 136 143 138
293 296 60 59 58 68 75 74 64 61 74 83 79 94 117 131 134 130 122 119 111 105 103 106 108 108 119 121 114 108 107 110 116 116 117 126 137 136 137 135 115 114 114 119 120 126 137 151 144
265 301 54 46 49 75 91 90 86 78 93 93 81 77 104 131 142 140 133 128 118 111 110 114 114 116 114 110 115 126 126 121 137 133 135 164 150 136 149 102 112 116 116 116 113 121 156 188 167
276 33 46 40 44 84 95 84 104 118 108 107 106 104 121 140 148 147 143 139 132 127 127 121 116 112 115 112 117 120 120 115 116 106 129 131 109 113 110 119 134 137 141 148 141 153 205 228 168
13 36 41 57 65 90 101 94 102 116 99 103 119 131 139 146 152 153 144 138 131 138 133 128 123 128 125 118 124 114 109 117 129 117 137 120 130 136 142 151 155 161 176 171 156 190 209 57 55
55 61 53 66 79 98 95 100 96 81 82 99 118 133 144 152 152 152 147 146 141 143 140 130 131 124 112 108 119 135 132 133 116 124 186 132 128 136 121 143 123 160 148 130 160 128 85 41 58
77 72 80 94 101 103 112 102 94 96 102 116 128 140 149 153 150 148 143 139 142 152 152 134 130 132 141 137 159 126 127 128 125 119 118 135 158 159 144 118 130 160 137 164 157 102 96 79 161
58 101 110 115 122 128 123 115 118 112 127 133 140 147 150 149 147 144 154 157 157 162 156 147 158 147 155 156 161 158 155 144 142 133 114 267 295 106 168 157 154 146 166 79 121 111 157 190 38
178 159 142 136 142 138 161 121 115 127 143 144 148 150 152 153 153 157 159 164 162 164 158 165 171 155 164 166 178 169 185 162 152 128 140 243 243 138 232 147 180 123 135 146 177 178 197 198 174
206 207 160 127 154 165 233 92 109 141 155 154 158 159 166 166 168 168 166 169 171 170 161 176 182 164 167 175 198 191 190 155 187 186 164 186 342 207 246 146 106 89 171 150 154 218 234 46 265
205 208 125 129 159 177 227 94 120 156 166 162 169 171 175 173 180 179 180 180 180 181 176 178 189 182 178 176 187 192 179 199 233 222 220 165 184 191 236 110 65 236 234 246 274 86 294 264 289
200 222 148 119 135 203 219 112 135 165 182 174 174 177 182 185 185 183 186 184 183 182 184 187 188 186 187 186 183 189 199 198 208 209 201 230 200 185 267 180 125 277 257 302 341 333 282 290 289
287 269 229 82 99 229 224 191 150 169 186 189 185 184 189 191 185 183 186 188 187 185 185 191 195 187 194 196 201 192 199 200 200 201 170 211 241 196 244 301 150 276 342 319 295 278 230 250 291
245 239 193 133 128 238 202 214 163 172 194 199 196 193 196 192 187 187 192 193 193 189 189 191 193 190 200 194 207 213 221 219 196 202 177 228 228 243 212 248 264 265 248 231 266 263 285 285 240
236 249 242 171 169 201 215 176 156 159 178 193 203 202 200 199 194 190 194 197 196 194 194 194 192 191 200 197 202 194 193 211 196 193 197 213 228 233 283 258 281 275 262 241 265 259 263 294 290
225 240 234 217 229 203 251 216 134 155 165 183 199 202 205 200 197 193 191 196 198 197 193 192 190 193 194 198 206 210 216 215 203 213 197 212 220 224 231 246 245 265 279 260 256 206 271 276 283
252 214 215 228 240 240 229 248 131 150 162 169 186 195 202 199 195 194 193 192 196 195 192 184 186 192 195 204 205 217 222 216 205 207 193 236 217 223 230 230 246 251 264 281 290 276 281 276 289
181 188 203 223 233 231 250 261 135 122 132 141 142 158 179 183 187 190 187 182 188 187 187 180 179 188 191 199 205 213 220 224 220 223 215 226 216 221 220 222 231 244 257 246 254 254 239 276 292
217 223 220 215 217 204 180 252 85 77 79 97 120 134 145 151 163 174 182 183 184 184 183 178 177 186 190 195 199 204 213 217 221 231 222 243 236 223 213 242 239 251 245 246 247 237 260 250 250
222 246 255 258 247 186 191 221 101 97 106 114 118 120 139 148 146 157 171 181 184 185 183 180 180 187 191 195 194 201 210 219 217 220 244 240 256 251 224 233 237 239 241 243 237 246 237 232 243
216 235 272 269 258 244 184 171 148 148 150 143 134 126 126 134 141 149 160 174 178 183 181 184 185 191 193 199 197 201 215 231 232 222 229 239 241 239 219 225 228 225 226 241 243 242 251 243 243
260 243 239 248 249 242 196 201 161 156 158 156 144 123 112 124 135 139 150 165 169 174 174 182 186 193 197 197 207 201 212 221 223 232 231 238 242 242 232 225 218 219 222 229 238 232 222 232 243
197 217 238 254 264 262 232 150 87 157 174 182 154 129 113 123 132 131 133 150 160 168 171 175 182 190 197 201 201 211 212 221 222 225 229 226 227 227 228 224 220 221 223 227 231 243 233 229 237
237 238 232 236 237 261 269 121 102 131 164 148 121 107 108 113 124 125 125 137 152 166 171 165 174 184 189 196 202 209 215 223 226 224 227 220 216 222 225 226 225 228 226 229 234 241 241 238 238